Home > Weather > Concord > Past weeks

Flag for U.S.A. Weather for the Past 2 Weeks in Concord, California, U.S.A.

Now
48 °F

Sunny.


Feels Like: 48 °F
Forecast: 48 / 70 °F
Wind: No wind

Location: Buchanan Field

Current Time: Feb 12, 2016 at 8:39:39 AM

Latest Report: Feb 12, 2016 at 7:53 AM


Visibility: 8 mi

Pressure: 30.17 "Hg

Humidity: 86%

Dew point: 44 °F

Location of ConcordLocation

Historic Weather in Concord — Graph

°F

Concord Temperature Yesterday

Maximum temperature yesterday: 71 °F (at 2:53 PM)
Minimum temperature yesterday: 46 °F (at 6:53 AM)
Average temperature yesterday: 57 °F

High & Low Weather Summary for the Past Weeks

 TemperatureHumidityPressure
High75 °F (Feb 8, 3:53 PM)90% (Jan 29, 4:53 AM)30.45 "Hg (Jan 29, 4:53 AM)
Low37 °F (Feb 5, 6:53 AM)27% (Feb 1, 2:53 PM)29.70 "Hg (Jan 31, 2:53 PM)
Average53 °F68%30.18 "Hg
* Reported Jan 28 6:53 AM — Feb 12 6:53 AM, Concord, Weather by CustomWeather, © 2016

Note: Actual official high and low records may vary slightly from our data, if they occured in-between our weather recording intervals... More about our weather records

Advertising

Concord Weather History for the Previous 24 Hours

 ConditionsComfort  
Time TempWeatherWind HumidityBarometerVisibility
6:53 AM
Fri, Feb 12
48 °FClear.No wind83%30.17 "Hg7 mi
5:53 AM47 °FFog.3 mph86%30.16 "Hg6 mi
4:53 AM48 °FClear.No wind83%30.15 "Hg6 mi
3:53 AM49 °FClear.No wind86%30.14 "Hg7 mi
2:53 AM50 °FClear.No wind83%30.15 "Hg5 mi
1:53 AM51 °FClear.No wind83%30.15 "Hg6 mi
12:53 AM52 °FClear.No wind83%30.15 "Hg6 mi
11:53 PM
Thu, Feb 11
53 °FClear.6 mph83%30.15 "Hg5 mi
10:53 PM56 °FClear.No wind77%30.15 "Hg6 mi
9:53 PM54 °FPassing clouds.No wind83%30.13 "Hg5 mi
8:53 PM58 °FPassing clouds.3 mph78%30.12 "Hg6 mi
7:53 PM60 °FPassing clouds.3 mph72%30.11 "Hg6 mi
6:53 PM61 °FPassing clouds.No wind70%30.11 "Hg6 mi
5:53 PM65 °FClear.No wind61%30.09 "Hg6 mi
4:53 PM66 °FPartly sunny.3 mph61%30.09 "Hg6 mi
3:53 PM69 °FSunny.7 mph57%30.08 "Hg6 mi
2:53 PM71 °FScattered clouds.5 mph53%30.08 "Hg7 mi
1:53 PM68 °FSunny.5 mph59%30.08 "Hg7 mi
12:53 PM66 °FSunny.6 mph61%30.09 "Hg9 mi
11:53 AM64 °FSunny.6 mph63%30.12 "Hg8 mi
10:53 AM60 °FSunny.8 mph67%30.14 "Hg9 mi
9:53 AM58 °FSunny.3 mph67%30.13 "Hg10 mi
8:53 AM53 °FSunny.No wind74%30.13 "Hg10 mi
Weather by CustomWeather, © 2016

See weather overviewHow to use our weather pages